カタログに戻る

SL-14 DEB

運用中PO
NORAD 45334·DEBRIS·🇷🇺 Russia

打ち上げ Aug 15, 1991 から Plesetsk Cosmodrome

Loading…

次のパス (今後24時間)

TLE

最新Source: Space-Track

元期: Sep 13, 2026, 03:16 UTC

1 45334U 91056BY  26256.13664928  .00000176  00000-0  36361-3 0  9996
2 45334  82.5547  49.9164 0046810 118.7849 241.7992 13.26747208317096

AllMySatでSL-14 DEBをリアルタイム追跡

Download on the App Store